Regional Weather Roundup
Issued by NWS Raleigh/Durham, NC

Home | Current Version | Previous Version | Text Only | Print | Product List | Glossary On
Versions: 1 2 3 4 5 6 7 8 9 10 11 12 13 14 15 16 17 18 19 20 21 22 23 24 25 26 27 28
000
ASUS42 KRAH 210510
RWRRAH
NORTH CAROLINA WEATHER ROUNDUP
NATIONAL WEATHER SERVICE RALEIGH NC
100 AM EDT MON APR 21 2014

NOTE: "FAIR" INDICATES FEW OR NO CLOUDS BELOW 12,000 FEET WITH NO
SIGNIFICANT WEATHER AND/OR OBSTRUCTIONS TO VISIBILITY.

NCZ001-053-055-056-065-067-210600-
WESTERN NORTH CAROLINA

CITY           SKY/WX    TMP DP  RH WIND       PRES   REMARKS
ASHEVILLE      CLEAR     45  38  76 CALM      30.23S
JEFFERSON      PTCLDY    50  24  35 CALM      30.23F
MORGANTON      CLEAR     49  38  65 N6        30.25F
HICKORY        CLEAR     51  33  50 CALM      30.20F
RUTHERFORDTON  CLEAR     48  37  66 N5        30.21F
MOUNT AIRY     CLEAR     56  32  40 NE6       30.20F
BOONE          CLEAR     37  32  83 CALM      30.25S
$$

NCZ021-022-025-041-071-084-088-210600-
CENTRAL NORTH CAROLINA

CITY           SKY/WX    TMP DP  RH WIND       PRES   REMARKS
CHARLOTTE      CLEAR     56  37  49 NE9       30.18F
GREENSBORO     CLEAR     50  35  56 E9        30.20F
WINSTON-SALEM  CLEAR     51  34  52 N3        30.22S
RALEIGH-DURHAM PTCLDY    50  31  48 NE8       30.21F
FORT BRAGG     CLOUDY    56  36  46 NE9       30.16F
FAYETTEVILLE   CLOUDY    57  39  51 N13       30.16F
CHAPEL HILL    CLEAR     50  31  48 NE6       30.22S
BURLINGTON     CLEAR     50  33  52 NE8       30.21F
LAURINBURG     CLOUDY    56  35  45 NE12      30.16F
$$

NCZ011-015-027-028-043-044-047-080-103-210600-
NORTHEASTERN NORTH CAROLINA

CITY           SKY/WX    TMP DP  RH WIND       PRES   REMARKS
ROCKY MT-WILSO CLOUDY    50  34  54 N13       30.20F
GREENVILLE     CLOUDY    50  37  62 N12       30.19S
WASHINGTON     CLOUDY    53  47  80 N12       30.17S
ELIZABETH CITY CLOUDY    48  42  80 N22       30.17F
MANTEO         CLOUDY    47  46  93 N20G31    30.11F
CAPE HATTERAS  CLOUDY    49  49 100 N20G31    30.03F
$$

NCZ078-087-090-091-093-098-101-210600-
SOUTHEASTERN NORTH CAROLINA

CITY           SKY/WX    TMP DP  RH WIND       PRES   REMARKS
LUMBERTON      CLEAR     55  40  56 NE9       30.14F
GOLDSBORO      CLOUDY    53  37  54 N9        30.15F
KINSTON        CLOUDY    52  40  63 N12G17    30.17F
KENANSVILLE    MOCLDY    52  39  62 N12G18    30.16S
NEW BERN       CLOUDY    52  45  77 N13G21    30.13F
CHERRY POINT   CLOUDY    51  45  79 N21G29    30.10F
BEAUFORT       CLOUDY    51  48  89 N14G29    30.07S
JACKSONVILLE   CLOUDY    52  45  77 N16       30.11F
WILMINGTON     CLOUDY    54  43  66 N15G28    30.10F
$$




USA.gov is the U.S. government's official web portal to all federal, state and local government web resources and services.